MOLNIYA 1-36

Last updated on Jan. 26, 2021, 8:12 a.m. UTC

1 09880U 77021A   21025.02134442  .00001536  00000-0  48253-3 0  9992
2 09880  62.9405 344.3318 7440703 287.2206   9.2852  2.00762514219208
UTC
Height (km)
Latitude
Longitude
Inclination
Orbital Period
UTC large
Height (km)
Speed (km/s)
/
Latitude / Longitude
Inclination (degrees)
Orbital Period (minutes)
Azimuth
Elevation
Range (km)
Doppler Factor
iOS Compass Heading
iOS Angle

Next 30 passes for location: Hong Kong

Rise time Rise Azimuth (degrees) Set time Set Azimuth (degrees) Duration Max altitude (degrees)

No matching passes for this satellites